カタログに戻る

FENGYUN 1C DEB

運用中SSO
NORAD 30725·DEBRIS·🇨🇳 China

打ち上げ May 10, 1999 から Taiyuan Satellite Launch Center

Loading…

次のパス (今後24時間)

TLE

最新Source: Space-Track

元期: Sep 14, 2026, 03:34 UTC

1 30725U 99025ASK 26257.14870947  .00001669  00000-0  81767-3 0  9998
2 30725  98.9919 334.1071 0084719 328.0548  60.7507 14.17392594  2419

AllMySatでFENGYUN 1C DEBをリアルタイム追跡

Download on the App Store